[[{"header":{"parameterUnit":"m.s-1","parameterCategory":1,"la1":30.2991,"la2":30.254,"lo1":-89.0895,"lo2":-89.0444,"dy":0.0017,"dx":0.0017,"nx":28,"ny":28,"refTime":"2023-10-18T03:00:00:Z","depth":0,"parameterNumber":2,"parameterNumberName":"U-component_of_WINDS"},"data":[0,0,0,0,0,0,0,0,0,0,0,0,0,0,0,0,0,0,0,0,0,0,0,0,0,0,0,0,0,0,0,0,0,0,0,0,0,0,0,0,0,0,0,0,0,0,0,0,0,0,0,0,0,0,0,0,0,0,-3.3711,-3.3712,0,-3.381,-3.3811,-3.3812,-3.3811,-3.381,-3.3809,-3.3808,-3.3904,-3.3908,-3.3912,0,0,0,0,0,0,0,0,0,0,0,0,0,-3.3518,-3.3522,-3.3711,-3.3712,-3.3713,-3.381,-3.3811,-3.3812,-3.3812,-3.381,-3.3809,-3.3807,-3.3903,-3.3907,-3.3912,0,0,0,0,0,0,0,0,0,0,0,0,0,-3.3608,-3.3523,-3.3711,-3.3725,-3.3727,-3.3809,-3.3811,-3.3813,-3.3812,-3.381,-3.3808,-3.3806,-3.3901,-3.3907,-3.3912,-3.3986,0,0,-3.393,-3.3932,0,0,0,0,0,0,0,0,-3.3603,-3.3615,-3.3721,-3.3724,-3.3727,-3.3796,-3.3778,-3.387,-3.3812,-3.378,-3.3808,-3.3805,-3.387,-3.3878,-3.39,-3.399,-3.3994,-3.393,-3.3934,-3.3936,-3.3938,0,0,0,0,0,0,0,-3.3597,-3.3611,-3.375,-3.3723,-3.3726,-3.3725,-3.3736,-3.3796,-3.3834,-3.3782,-3.3783,-3.3794,-3.3871,-3.3895,-3.3903,-3.3996,-3.393,-3.3935,-3.3939,-3.3941,-3.4152,-3.4154,0,0,0,0,0,0,-3.3588,-3.3605,-3.3747,-3.3753,-3.3659,-3.373,-3.3742,-3.3776,-3.3833,-3.384,-3.3796,-3.3794,-3.3886,-3.3896,-3.3906,-3.3996,-3.3936,-3.3941,-3.3945,-3.415,-3.4152,-3.4155,0,0,0,0,0,0,-3.3584,-3.3601,-3.3743,-3.3679,-3.3697,-3.3736,-3.3774,-3.3779,-3.3803,-3.3844,-3.385,-3.3814,-3.3885,-3.3898,-3.3966,-3.3999,-3.3944,-3.3949,-3.4147,-3.415,-3.4154,-3.4175,0,0,0,0,0,0,-3.3578,-3.3599,-3.3628,-3.368,-3.3701,-3.3802,-3.3776,-3.3782,-3.3813,-3.3812,-3.3862,-3.3869,-3.3884,-3.3958,-3.3972,-3.4006,-3.3953,-3.4144,-3.4149,-3.4152,-3.4172,-3.4179,-3.4185,0,0,0,0,0,-3.3571,-3.3629,-3.3629,-3.3646,-3.3738,-3.3804,-3.3816,-3.3834,-3.3816,-3.3845,-3.3871,-3.3867,-3.3994,-3.3965,-3.3981,-3.4017,-3.4142,-3.4147,-3.4152,-3.4169,-3.4178,-3.4185,0,0,0,0,0,0,-3.3577,-3.3636,-3.3637,-3.3713,-3.3754,-3.3804,-3.3841,-3.3843,-3.3888,-3.3884,-3.3904,-3.3915,-3.3984,-3.4007,-3.3974,-3.4091,-3.4066,-3.4074,-3.4073,-3.4081,-3.4088,-3.408,-3.3958,0,0,0,0,0,-3.3588,-3.3638,-3.3686,-3.3749,-3.377,-3.3802,-3.3831,-3.3843,-3.3885,-3.3901,-3.3933,-3.3973,-3.4022,-3.4053,-3.41,-3.4176,-3.4187,-3.4209,-3.4215,-3.4221,-3.4227,-3.4269,-3.4279,-3.4171,-3.4171,-3.4171,0,0,-3.3609,-3.3647,-3.3677,-3.3751,-3.3784,-3.3835,-3.3816,-3.387,-3.3908,-3.3909,-3.3976,-3.4001,-3.4047,-3.412,-3.4153,-3.4141,-3.426,-3.4227,-3.4231,-3.4234,-3.4275,-3.4285,-3.4294,-3.4175,-3.4174,-3.4173,0,0,-3.3673,-3.3708,-3.3764,-3.3799,-3.385,-3.3871,-3.3885,-3.3936,-3.3953,-3.4021,-3.4023,-3.4068,-3.4151,-3.4184,-3.4212,-3.4292,-3.429,-3.4307,-3.4341,-3.4382,-3.439,-3.4398,-3.4426,-3.4436,-3.4314,-3.4314,-3.4314,0,-3.3692,-3.3771,-3.3792,-3.3848,-3.388,-3.3886,-3.3943,-3.3974,-3.4037,-3.4059,-3.4046,-3.4152,-3.4183,-3.4264,-3.4284,-3.4306,-3.4322,-3.43,-3.4388,-3.4396,-3.4403,-3.443,-3.444,-3.4316,-3.4315,-3.4315,-3.4315,0,-3.3792,-3.3846,-3.3885,-3.3948,-3.3985,-3.404,-3.407,-3.4104,-3.4113,-3.4136,-3.4205,-3.4244,-3.4299,-3.432,-3.4328,-3.4402,-3.4393,-3.4384,-3.4358,-3.4415,-3.444,-3.445,-3.4318,-3.4317,-3.4317,-3.4317,0,0,-3.3859,-3.3936,-3.395,-3.3979,-3.4038,-3.4079,-3.4135,-3.4192,-3.4221,-3.4265,-3.4312,-3.4384,-3.4376,-3.4408,-3.442,-3.4456,-3.4517,-3.4442,-3.4444,-3.4454,-3.4601,-3.4606,-3.4618,-3.4517,-3.4519,-3.4521,-3.4596,0,-3.3929,-3.403,-3.4052,-3.4139,-3.4189,-3.4198,-3.4247,-3.4287,-3.4311,-3.4356,-3.4382,-3.4432,-3.4419,-3.4438,-3.4474,-3.4502,-3.4546,-3.4497,-3.4559,-3.4561,-3.4545,-3.4631,-3.4637,-3.4706,-3.4607,-3.4608,-3.461,0,-3.4023,-3.4072,-3.4164,-3.4217,-3.4239,-3.4283,-3.4337,-3.4381,-3.4427,-3.4442,-3.4479,-3.4488,-3.4546,-3.452,-3.4599,-3.4565,-3.4593,-3.461,-3.4613,-3.4618,-3.4587,-3.4636,-3.4729,-3.4738,-3.4626,-3.4624,-3.4623,0,-3.4061,-3.415,-3.4217,-3.4242,-3.4306,-3.4337,-3.4365,-3.441,-3.4442,-3.449,-3.4511,-3.4564,-3.4592,-3.4633,-3.4656,-3.4635,-3.4734,-3.4709,-3.4746,-3.4746,-3.4764,-3.4763,-3.486,-3.4785,-3.4785,-3.4785,-3.4785,0,-3.4136,-3.4191,-3.4236,-3.4277,-3.434,-3.4365,-3.4426,-3.4454,-3.4495,-3.454,-3.4551,-3.4593,-3.4622,-3.4668,-3.4687,-3.475,-3.4763,-3.4775,-3.4779,-3.4773,-3.4772,-3.479,-3.4785,-3.4788,-3.4787,-3.4787,-3.4786,0,-3.4188,-3.422,-3.4294,-3.435,-3.4365,-3.4409,-3.4456,-3.4496,-3.4521,-3.4579,-3.4594,-3.4633,-3.4688,-3.4716,-3.4784,-3.4797,-3.4868,-3.4869,-3.4852,-3.4853,-3.4889,-3.4884,-3.5,-3.5016,-3.4932,-3.4932,-3.4933,0,-3.4232,-3.4276,-3.4338,-3.437,-3.4399,-3.4451,-3.4486,-3.4513,-3.4549,-3.4606,-3.4639,-3.4696,-3.4742,-3.483,-3.4863,-3.4916,-3.4918,-3.4955,-3.4926,-3.4919,-3.4917,-3.4913,-3.4918,-3.4959,-3.496,-3.4961,-3.4961,0,-3.4307,-3.4322,-3.4372,-3.4429,-3.447,-3.4515,-3.456,-3.4586,-3.462,-3.4659,-3.4717,-3.4754,-3.4825,-3.4881,-3.4937,-3.4964,-3.4968,-3.4971,-3.4982,-3.4975,-3.4963,-3.4969,-3.4865,-3.4967,-3.4967,-3.4966,-3.4966,-3.4966,-3.4356,-3.4395,-3.4445,-3.4501,-3.4539,-3.4581,-3.4621,-3.4653,-3.4702,-3.4764,-3.4777,-3.4838,-3.4885,-3.4961,-3.499,-3.5038,-3.503,-3.5046,-3.505,-3.5053,-3.5054,-3.4958,-3.5048,-3.5048,-3.5048,-3.5048,-3.5048,0,-3.443,-3.4464,-3.4515,-3.4579,-3.4623,-3.4626,-3.4676,-3.4712,-3.4767,-3.4811,-3.4858,-3.4925,-3.4979,-3.5019,-3.5074,-3.5105,-3.5108,-3.5118,-3.5115,-3.5121,-3.5059,-3.5043,-3.5115,-3.5115,-3.5115,-3.5115,-3.5115,-3.5115,-3.4473,-3.454,-3.4561,-3.4647,-3.468,-3.4742,-3.477,-3.4809,-3.4844,-3.4919,-3.4966,-3.4992,-3.5034,-3.5094,-3.5144,-3.5154,-3.5173,-3.5183,-3.5193,-3.5133,-3.5126,-3.5119,-3.5104,-3.5187,-3.5188,-3.5251,-3.5252,-3.5252]},{"header":{"parameterUnit":"m.s-1","parameterCategory":1,"la1":30.2991,"la2":30.254,"lo1":-89.0895,"lo2":-89.0444,"dy":0.0017,"dx":0.0017,"nx":28,"ny":28,"refTime":"2023-10-18T03:00:00:Z","depth":0,"parameterNumber":3,"parameterNumberName":"V-component_of_WINDS"},"data":[0,0,0,0,0,0,0,0,0,0,0,0,0,0,0,0,0,0,0,0,0,0,0,0,0,0,0,0,0,0,0,0,0,0,0,0,0,0,0,0,0,0,0,0,0,0,0,0,0,0,0,0,0,0,0,0,0,0,0.5313,0.5314,0,0.5327,0.5327,0.5327,0.5342,0.5342,0.5343,0.5343,0.5353,0.5353,0.5353,0,0,0,0,0,0,0,0,0,0,0,0,0,0.5297,0.5298,0.5313,0.5314,0.5314,0.5327,0.5327,0.5327,0.5342,0.5342,0.5343,0.5343,0.5353,0.5353,0.5353,0,0,0,0,0,0,0,0,0,0,0,0,0,0.5307,0.5298,0.5313,0.5323,0.5324,0.5327,0.5327,0.5328,0.5342,0.5342,0.5343,0.5343,0.5353,0.5353,0.5353,0.5346,0,0,0.5353,0.5353,0,0,0,0,0,0,0,0,0.5306,0.5308,0.5321,0.5322,0.5323,0.5333,0.5325,0.5334,0.5342,0.5335,0.5343,0.5343,0.5346,0.5346,0.5348,0.5347,0.5347,0.5353,0.5353,0.5353,0.5353,0,0,0,0,0,0,0,0.5306,0.5307,0.5319,0.5321,0.5323,0.5326,0.5327,0.5327,0.5338,0.5336,0.5337,0.5338,0.5346,0.5348,0.5348,0.5347,0.5353,0.5353,0.5353,0.5353,0.5344,0.5343,0,0,0,0,0,0,0.5304,0.5306,0.5318,0.5319,0.5316,0.5326,0.5327,0.533,0.5338,0.534,0.5338,0.5339,0.5348,0.5348,0.5349,0.5343,0.5353,0.5353,0.5353,0.5344,0.5343,0.5343,0,0,0,0,0,0,0.5304,0.5305,0.5318,0.5313,0.5315,0.5326,0.5328,0.533,0.5332,0.534,0.5342,0.5338,0.5348,0.5349,0.5348,0.5343,0.5353,0.5353,0.5344,0.5344,0.5343,0.5331,0,0,0,0,0,0,0.5303,0.5305,0.5303,0.5313,0.5315,0.5317,0.5328,0.533,0.5332,0.5334,0.534,0.5342,0.5348,0.5347,0.5348,0.5344,0.5353,0.5345,0.5344,0.5343,0.5332,0.533,0.5329,0,0,0,0,0,0.5303,0.5298,0.5303,0.5304,0.5313,0.5317,0.5318,0.5327,0.5332,0.533,0.5336,0.5342,0.5344,0.5347,0.5348,0.5344,0.5345,0.5344,0.5343,0.5332,0.533,0.5329,0,0,0,0,0,0,0.5285,0.5299,0.5305,0.5303,0.5309,0.5319,0.5317,0.5324,0.5327,0.5328,0.5337,0.5339,0.5337,0.534,0.5343,0.5339,0.5345,0.5345,0.5337,0.5335,0.5333,0.5332,0.5353,0,0,0,0,0,0.5281,0.5284,0.5296,0.5293,0.5296,0.5306,0.5308,0.5314,0.532,0.5322,0.5327,0.5332,0.5334,0.5334,0.5336,0.5332,0.5334,0.533,0.5329,0.5327,0.5326,0.5326,0.5324,0.5341,0.5341,0.5341,0,0,0.5272,0.5281,0.5281,0.529,0.5295,0.5297,0.5308,0.5309,0.531,0.5321,0.5322,0.5326,0.5331,0.5329,0.5328,0.5332,0.5322,0.5326,0.5325,0.5325,0.5325,0.5323,0.5322,0.534,0.5341,0.5341,0,0,0.5258,0.5264,0.5264,0.5269,0.5278,0.5285,0.5285,0.5295,0.5299,0.53,0.5309,0.531,0.5313,0.5317,0.5319,0.5309,0.5315,0.5309,0.5301,0.53,0.5299,0.5298,0.5295,0.5293,0.5308,0.5308,0.5308,0,0.5246,0.525,0.5262,0.5264,0.5267,0.528,0.5279,0.5283,0.5291,0.5293,0.5297,0.5303,0.5307,0.5307,0.5305,0.5306,0.5306,0.5308,0.5298,0.5297,0.5296,0.5293,0.5292,0.5308,0.5308,0.5308,0.5308,0,0.5235,0.5238,0.5237,0.5247,0.525,0.525,0.5262,0.5263,0.527,0.5277,0.5278,0.5284,0.5288,0.5289,0.5294,0.5289,0.5291,0.5297,0.5303,0.5294,0.5291,0.529,0.5307,0.5307,0.5307,0.5307,0,0,0.5208,0.5227,0.5226,0.5231,0.5243,0.5245,0.5246,0.5252,0.5254,0.5259,0.5261,0.5264,0.527,0.5272,0.5279,0.5278,0.5271,0.5284,0.5284,0.5281,0.5266,0.5262,0.5261,0.5275,0.5275,0.5275,0.5266,0,0.5196,0.52,0.5212,0.5212,0.5216,0.5229,0.523,0.5237,0.5243,0.5246,0.5253,0.5256,0.5263,0.5265,0.5265,0.5272,0.5268,0.5272,0.5275,0.5275,0.5274,0.5259,0.5255,0.5246,0.5265,0.5265,0.5265,0,0.5182,0.5189,0.519,0.5204,0.5206,0.5206,0.5214,0.5217,0.5225,0.523,0.5235,0.5242,0.5244,0.5251,0.5253,0.5256,0.5258,0.5262,0.5262,0.5262,0.5269,0.5259,0.5244,0.5242,0.5263,0.5263,0.5263,0,0.5163,0.5172,0.5175,0.5179,0.5195,0.5195,0.5201,0.521,0.5214,0.522,0.5222,0.5228,0.5231,0.5234,0.5244,0.5248,0.5245,0.5252,0.5249,0.5249,0.5247,0.5247,0.5232,0.5248,0.5249,0.5249,0.5249,0,0.5147,0.5148,0.5167,0.5169,0.517,0.5183,0.5183,0.519,0.5199,0.5201,0.5212,0.5214,0.5227,0.523,0.5237,0.5238,0.5239,0.5243,0.5245,0.5242,0.5242,0.5243,0.5244,0.5248,0.5248,0.5248,0.5248,0,0.5126,0.5139,0.5143,0.5158,0.5162,0.5162,0.5175,0.5176,0.5185,0.5188,0.519,0.5202,0.5207,0.5217,0.5223,0.5228,0.5228,0.5231,0.5226,0.5227,0.5223,0.5223,0.5208,0.5207,0.5224,0.5224,0.5224,0,0.5115,0.5116,0.5133,0.5136,0.5143,0.5148,0.5153,0.5166,0.517,0.5181,0.5181,0.5188,0.5193,0.52,0.5209,0.5214,0.5218,0.5212,0.5219,0.5216,0.5218,0.5218,0.5219,0.5211,0.521,0.521,0.521,0,0.5095,0.5102,0.5109,0.5119,0.5125,0.5132,0.514,0.5142,0.5158,0.5162,0.5168,0.5172,0.5181,0.5187,0.5194,0.5199,0.5207,0.5208,0.5208,0.5205,0.5202,0.5204,0.5222,0.5208,0.5208,0.5208,0.5209,0.5209,0.5079,0.5081,0.5094,0.5102,0.511,0.5118,0.5121,0.5131,0.5137,0.5146,0.5153,0.5159,0.5168,0.518,0.5185,0.5189,0.5192,0.5192,0.5191,0.5191,0.519,0.5202,0.519,0.519,0.519,0.519,0.519,0,0.506,0.507,0.5077,0.5089,0.5096,0.5105,0.5115,0.5119,0.5125,0.5133,0.514,0.5147,0.5154,0.5164,0.5171,0.5173,0.5176,0.5174,0.5174,0.5175,0.5186,0.5186,0.5171,0.5171,0.5171,0.5171,0.5171,0.5171,0.5051,0.5056,0.5065,0.5074,0.5083,0.509,0.5095,0.5103,0.511,0.5119,0.5125,0.5133,0.5143,0.5151,0.5157,0.516,0.5162,0.5159,0.5162,0.5172,0.5174,0.5176,0.5176,0.5159,0.5159,0.5151,0.5151,0.5151]}]]